Regional Weather Roundup
Issued by NWS

Home | Current Version | Previous Version | Text Only | Print | Product List | Glossary On
Versions: 1 2 3 4 5 6 7 8 9 10 11 12 13 14 15 16 17 18 19 20 21 22 23 24 25 26 27 28 29 30 31 32 33 34 35 36 37 38 39 40 41 42 43 44 45 46 47 48 49 50
000
ASUS46 KLOX 250902
RWRCA

SOUTHERN CALIFORNIA WEATHER ROUNDUP
NATIONAL WEATHER SERVICE OXNARD CALIFORNIA
200 AM PDT FRI APR 25 2014

NOTE: "FAIR" INDICATES FEW OR NO CLOUDS BELOW 12,000 FEET WITH NO
SIGNIFICANT WEATHER AND/OR OBSTRUCTIONS TO VISIBILITY.

  -  STATIONS PRECEEDED BY AN ASTERISK (*) ARE NOT NWS OR FAA
     STATIONS AND ARE NOT SUBJECT TO NWS AND FAA QUALITY CONTROL.

CAZ041-042-087-251000-
LA AND ORANGE COUNTY COASTAL AREAS


CITY           SKY/WX    TMP DP  RH WIND       PRES   REMARKS
L.A. DOWNTOWN  PTCLDY    60  52  74 CALM      29.91F
L.A. AIRPORT   PTCLDY    60  53  77 E7        29.91F
LONG BEACH     CLOUDY    62  55  77 SE6       29.91F

CITY           SKY/WX    TMP DP  RH WIND       PRES   REMARKS
AVALON           N/A     59 N/A N/A S3          N/A
FULLERTON      CLEAR     60  50  69 CALM      29.91S
*GETTY CENTER    N/A     54  50  87 S3          N/A
HAWTHORNE      PTCLDY    61  51  70 E3        29.91F
*LOS ALAMITOS  FAIR      60  56  88 SE3       29.91F
*REDONDO BEACH   N/A     57  54  89 W1        29.89F
SANTA ANA      CLEAR     62  52  69 CALM      29.92R
STA MONICA APT PTCLDY    61  54  77 N3        29.91F
*UCLA            N/A     55  50  82 N6        29.89S

$$

CAZ547-548-048-251000-
LA COUNTY VALLEYS AND INLAND EMPIRE


CITY           SKY/WX    TMP DP  RH WIND       PRES   REMARKS
BURBANK        CLEAR     59  49  69 SE5       29.91F
VAN NUYS       CLEAR     59  50  72 CALM      29.92S

CITY           SKY/WX    TMP DP  RH WIND       PRES   REMARKS
CORONA AIRPORT MOSUNNY   53  46  77 W5          N/A
*CHATSWORTH      N/A     59  49  69 E1        29.89S
CHINO          PTCLDY    51  47  86 CALM      29.93S
MARCH AFB      PTCLDY    53  49  87 SE2       29.92F
*NORTHRIDGE      N/A     59  48  67 NE1         N/A
ONTARIO        PTCLDY    57  46  66 NW5       29.92S
*PASADENA        N/A     59  52  77 CALM        N/A
RIVERSIDE      PTCLDY    59  46  62 CALM      29.91F
SAN BERNARDINO NOT AVBL
*SAN GABRIEL     N/A     59  48  66 CALM      29.89F
*WHITEMAN AP   NOT AVBL
*WOODLAND HILL   N/A     54  48  82 S2          N/A

$$

CAZ054-055-251000-
LA AND SAN BERNARDINO COUNTY MOUNTAINS


CITY           SKY/WX    TMP DP  RH WIND       PRES   REMARKS
*ACTON           N/A     49  32  51 SE3         N/A
*BIG BEAR AIRP MOSUNNY   37  32  81 SW3       30.03F
*BIG PINES       N/A     44  27  50 S2          N/A
*CHILAO          N/A     49  30  48 W3          N/A
MT WILSON NWS    N/A     46  23  39 SW3         N/A
SANDBERG       CLEAR     54  36  50 NW16      29.98F
*WARM SPRINGS    N/A     53  35  50 W14G28      N/A

$$

CAZ028-029-059-060-099-251000-
ANTELOPE VALLEY AND SURROUNDING AREAS


CITY           SKY/WX    TMP DP  RH WIND       PRES   REMARKS
LANCASTER      CLEAR     60  37  42 W17       29.89F
PALMDALE       CLEAR     60  33  36 SW13      29.90F

CITY           SKY/WX    TMP DP  RH WIND       PRES   REMARKS
29 PALMS       PTCLDY    66  37  34 W12       29.90F
BARSTOW/DAGGET PTCLDY    67  31  26 SW21      29.83F
BISHOP         CLOUDY    64  25  22 N3        29.79F
CHINA LAKE       N/A     65  35  33 S14       29.78F
EDWARDS AFB    CLEAR     57  35  43 SW10      29.86F
MOJAVE         FAIR      59  37  44 W14G24    29.87F
NEEDLES        PTCLDY    74  17  11 W8        29.77F
VICTORVILLE    PTCLDY    55  30  38 S6        29.91F

$$

CAZ039-040-251000-
VENTURA AND SANTA BARBARA COUNTY COAST


CITY           SKY/WX    TMP DP  RH WIND       PRES   REMARKS
CAMARILLO      CLEAR     56  51  84 CALM      29.91R
NWS OXNARD       N/A     58  53  85 W3        29.90S
OXNARD AIRPORT PTCLDY    59  53  80 CALM      29.91R
*POINT MUGU    CLEAR     57  52  83 E5        29.90S
SBA APT/GOLETA CLEAR     58  52  80 NE5       29.90R
*SANTA BARBARA   N/A     59  53  79 CALM      29.98S
*VENTURA         N/A     56  50  79 CALM      29.96S

$$

CAZ044-045-251000-
VENTURA COUNTY VALLEYS


CITY           SKY/WX    TMP DP  RH WIND       PRES   REMARKS
*SIMI VALLEY     N/A     58  43  58 CALM      29.87R
*OJAI            N/A     48  43  81 CALM      29.85F
*FILLMORE        N/A     51  43  73 CALM      29.81S

$$

CAZ053-251000-
VENTURA COUNTY MOUNTAINS


CITY           SKY/WX    TMP DP  RH WIND       PRES   REMARKS
*LOCKWOOD VLY    N/A     36  27  69 MISG        N/A
*ROSE VALLEY     N/A     37  34  87 MISG        N/A

$$

CAZ034-035-036-251000-
CENTRAL COAST AND SANTA YNEZ VALLEY


CITY           SKY/WX    TMP DP  RH WIND       PRES   REMARKS
SAN LUIS OBISP PTCLDY    52  49  89 CALM      29.94S
SANTA MARIA    MOCLDY    54  50  86 SW5       29.95F

CITY           SKY/WX    TMP DP  RH WIND       PRES   REMARKS
*CAL POLY SLO    N/A     52  50  93 NW3         N/A
*CAMBRIA         N/A     49  48  94 CALM      29.84S
*LOMPOC        CLOUDY    54  48  82 W7        29.97F
*PISMO BEACH     N/A     53  50  91 E1        29.94F
*SANTA YNEZ    CLOUDY    50  48  93 CALM      29.96F

$$

CAZ037-038-051-251000-
SAN LUIS OBISPO COUNTY INTERIOR AND CUYAMA VALLEY


CITY           SKY/WX    TMP DP  RH WIND       PRES   REMARKS
PASO ROBLES    PTCLDY    55  46  71 NW10      29.93F

$$

CAZ032-033-061-251000-
SOUTHERN DESERTS


CITY           SKY/WX    TMP DP  RH WIND       PRES   REMARKS
BLYTHE         PTCLDY    74  29  19 VRB5      29.78F
IMPERIAL       PTCLDY    69  34  27 W7        29.78S
PALM SPRINGS   PTCLDY    70  43  37 SE6       29.79F
THERMAL        PTCLDY    73  40  30 NW12      29.75F

$$

ELSEWHERE ACROSS THE WESTERN UNITED STATES AND MEXICO


CITY           SKY/WX    TMP DP  RH WIND       PRES   REMARKS
DENVER, CO     PTCLDY    46  26  45 SW9       29.92S
GRAND CANYON,  PTCLDY    29   5  36 E3        30.03F
HONOLULU, HI   MOCLDY    73  68  84 NE12      30.15R
KAHULUI, MAUI  PTCLDY    73  67  81 NE10      30.14S
LAKE TAHOE, CA LGT RAIN  38  31  76 S14G25    29.90S WCI  30
LAS VEGAS, NV  MOCLDY    72  25  17 S10       29.74F
MAMMOTH LAKES, FAIR      46  25  42 SE12G30   29.92F
MEXICO CITY, M PTCLDY    63  41  45 CALM      30.27F
PHOENIX, AZ    PTCLDY    71  27  19 NE7       29.82F
PORTLAND, OR   CLOUDY    47  43  86 SE3       29.92S
RENO, NV       MOCLDY    50  32  50 SW13G28   29.83F
SALT LAKE CITY CLOUDY    49  34  56 SE5       29.83F
SAN DIEGO, CA  MOCLDY    62  54  74 S7        29.94F
SAN FRANCISCO, CLOUDY    58  54  86 W7        29.95F
SAN JOSE, CA   CLOUDY    58  52  80 CALM      29.96F
SEATTLE, WA    PTCLDY    44  39  82 SE8       29.90F
TIJUANA, MEX   CLEAR     57  50  77 CALM      29.96F

$$

STATION/POSITION TIME  TEMP    WIND        PRES    VSBY  WAVE
                       AIR SEA DIR/SP/G                  HT/PER
                 (UTC) (F)     (DEG/KT/KT) (MB)    (MI)  (FT/S)
POINT ARGUELLO B NOT AVBL
WEST SANTA BARBA 0800   54 54  320/ 25/ 29 1012.8S         8/11
POINT CONCEPTION NOT AVBL
EAST SANTA BARBA NOT AVBL
SANTA MONICA BAY 0800   60 61  140/  8/ 10 1012.2S         4/ 8



USA.gov is the U.S. government's official web portal to all federal, state and local government web resources and services.